Ellensburg, WA
on Friday, January 11, 2013

Friday
Previous Day Next Day
Daily Summary
 ActualAverage (KYKM)Record (KYKM)
Temperature
Mean Temperature °F 30°F  
Max Temperature 32°F 37°F 59°F (2014)
Min Temperature 14°F 23°F -4°F (1949)
Degree Days
Heating Degree Days 42 35  
Month to date heating degree days 396  
Since 1 July heating degree days 3059  
Cooling Degree Days 0 0  
Month to date cooling degree days 0  
Year to date cooling degree days 0  
Moisture
Dew Point 11°F   
Average Humidity 68    
Maximum Humidity 77    
Minimum Humidity 54    
Precipitation
Precipitation 0.00 in 0.04 in 0.70 in (1959)
Month to date precipitation 0.47  
Year to date precipitation 0.47  
Snow
Snow 0.00 in 0.20 in 6.10 in (1998)
Month to date snowfall 2.5  
Year to date snowfall 2.5  
Since 1 July snowfall 15.5  
Snow Depth in   
Wind
Wind Speed 2 mph   
Max Wind Speed 9 mph   
Max Gust Speed mph   
Visibility 10 miles   
Events     

Key: T is trace of precipitation, MM is missing value
Source: NWS Daily Summary
Time(PST)TemperatureDew PointHumidity Pressure Visibility Wind DirectionWind SpeedGust SpeedPrecipitationEvents Conditions
12:53 AM 21.9°F 12.0°F 66% 30.02 in 10.0 miles Calm Calm - N/A   Clear
1:53 AM 23.0°F 12.0°F 63% 30.04 in 10.0 miles NNW 9.2 mph - N/A   Clear
2:53 AM 23.0°F 10.9°F 60% 30.06 in 10.0 miles Calm Calm - N/A   Clear
3:53 AM 18.0°F 9.0°F 68% 30.07 in 10.0 miles WSW 3.5 mph - N/A   Clear
4:53 AM 15.1°F 7.0°F 70% 30.10 in 10.0 miles SE 4.6 mph - N/A   Clear
5:53 AM 16.0°F 7.0°F 68% 30.13 in 10.0 miles Calm Calm - N/A   Clear
6:53 AM 15.1°F 7.0°F 70% 30.16 in 10.0 miles NE 3.5 mph - N/A   Clear
7:53 AM 17.1°F 10.0°F 74% 30.18 in 10.0 miles Calm Calm - N/A   Overcast
8:53 AM 19.9°F 12.0°F 71% 30.22 in 10.0 miles Calm Calm - N/A   Overcast
9:53 AM 21.9°F 12.9°F 68% 30.24 in 10.0 miles Calm Calm - N/A   Overcast
10:53 AM 24.1°F 14.0°F 65% 30.25 in 10.0 miles Calm Calm - N/A   Overcast
12:53 PM 28.9°F 17.1°F 61% 30.24 in 10.0 miles ENE 5.8 mph - N/A   Clear
1:53 PM 30.0°F 17.1°F 59% 30.24 in 10.0 miles Calm Calm - N/A   Clear
2:53 PM 32.0°F 17.1°F 54% 30.25 in 10.0 miles Calm Calm - N/A   Clear
3:53 PM 28.9°F 17.1°F 61% 30.27 in 10.0 miles East 4.6 mph - N/A   Clear
4:53 PM 25.0°F 15.1°F 66% 30.28 in 10.0 miles Calm Calm - N/A   Clear
5:53 PM 19.0°F 10.9°F 71% 30.30 in 10.0 miles North 3.5 mph - N/A   Clear
6:53 PM 18.0°F 10.9°F 74% 30.30 in 10.0 miles NNW 3.5 mph - N/A   Clear
7:53 PM 17.1°F 10.0°F 74% 30.30 in 10.0 miles Calm Calm - N/A   Clear
8:53 PM 16.0°F 10.0°F 77% 30.30 in 10.0 miles Calm Calm - N/A   Clear
9:53 PM 17.1°F 8.1°F 68% 30.29 in 10.0 miles NE 3.5 mph - N/A   Clear
10:53 PM 17.1°F 10.0°F 74% 30.29 in 10.0 miles Calm Calm - N/A   Clear
11:53 PM 14.0°F 7.0°F 74% 30.30 in 10.0 miles Calm Calm - N/A   Clear
Moon Phase
Jan. 11 Jan. 18 Jan. 26 Feb. 03 Feb. 10
Sunrise:07:45 AM (PST) Moon Rise:07:19 AM (PST)1/11
Sunset:04:35 PM (PST) Moon Set:05:03 PM (PST)1/11

Copyright © 2014 The Weather Underground, Inc.